Showing default

TRANSIT 5B-1, 670

Orbit data source: Space-Track

TRANSIT 5B-1, 670 is a payload satellite owned by USN BuWeps (US) in LEO that was launched on Sat, 28 Sep 1963 UTC via a THOR ABLESTAR launch vehicle from the Air Force Western Test Range (AFWTR). Payload-class satellites include a variety of spacecraft equipped with specific instruments for various scientific and technological missions. These include communications satellites like Starlink; space stations such as the ISS; scientific satellites like the Hubble; Earth observation satellites from companies like Planet Labs, Umbra, and HawkEye 360; GPS; miniature CubeSats for education and research; and military/defense satellites.

Loading next visibility...
Identifier
670, 1963-038B
Orbit
LEO
Country
Flag of USUS
Related business
Manufacturer
APL
Mission
Spacecraft
Bus & Motor
TRANSIT 5, Unknown motor
Mass
69 kg wet, 69 kg dry
Launch date (UTC)
1963-09-28 (62 years ago)
Launch vehicle
THOR ABLESTAR
Launch site
Air Force Western Test Range (AFWTR)
Object type
Payload
Rocket body
Debris
Shape & HBR
Unknown
Radar Cross Section
Medium (>0.1 m² and <1 m²)

Expand to show TLE details & history
Last TLE update: 16 hours ago

TLE from 16 hours ago
0 TRANSIT 5B-1
1 00670U 63038B   25303.51476544  .00000098  00000-0  15203-3 0  9993
2 00670  89.9711 333.6458 0040558 334.5049  25.4097 13.44641272 43325
Epoch: 2025-10-30T12:21Z
TLE epoch observation values (Epoch: 2025-10-30T12:21:15.734Z)
Latitude
-0.00004°
Longitude
109.25779°
Altitude
1,067.636 km
Speed
7.332 km/s
True Right ascension
22h 14m 34s
True Declination
0° 00' 00"
Sunlit
Object was in daylight at epoch
Visualization orbit readout
Latitude
Unknown
Longitude
Unknown
Altitude
Unknown
Speed
Unknown
Apparent Right ascension
Unknown
Apparent Declination
Unknown
Sunlit
N/A
Visualization observer readout
Local Sidereal Time
23:43:14
Azimuth
Unknown
Elevation
Unknown
Doppler factor
Unknown
Orbital elements
Apogee altitude
1,119.383 km
Perigee altitude
1,058.812 km
Semi-major axis
7,467.234 km
Eccentricity
0.00406
Inclination
89.9711°
RAAN
333.6458°
Arg. of periapsis
334.5049°
True anomaly
25.61004°
Mean anomaly
25.4097°
Eccentric anomaly
25.50978°
Mean motion
3.36359 °/min
Orbital period
107.03 mins
BSTAR
0.00015203
Loading maneuver chart data...
Computing Atmospheric mass density...

Documentation

Showing up to 5 results
|